TimeAKDT,TemperatureF,Dew PointF,Humidity,Sea Level PressureIn,VisibilityMPH,Wind Direction,Wind SpeedMPH,Gust SpeedMPH,PrecipitationIn,Events,Conditions,WindDirDegrees,DateUTC
12:53 AM,9.0,6.1,88,29.39,10.0,Calm,Calm,-,N/A,,Overcast,0,2012-10-14 08:53:00
1:53 AM,8.1,6.1,92,29.38,10.0,Calm,Calm,-,N/A,,Partly Cloudy,0,2012-10-14 09:53:00
2:53 AM,6.1,3.0,87,29.36,10.0,Calm,Calm,-,N/A,,Scattered Clouds,0,2012-10-14 10:53:00
3:53 AM,8.1,5.0,87,29.34,10.0,WNW,3.5,-,N/A,,Mostly Cloudy,300,2012-10-14 11:53:00
4:53 AM,10.9,8.1,88,29.31,10.0,Calm,Calm,-,N/A,,Mostly Cloudy,0,2012-10-14 12:53:00
5:53 AM,12.9,10.0,88,29.29,10.0,Calm,Calm,-,N/A,,Mostly Cloudy,0,2012-10-14 13:53:00
6:53 AM,10.9,9.0,92,29.29,10.0,Calm,Calm,-,N/A,,Mostly Cloudy,0,2012-10-14 14:53:00
7:53 AM,8.1,5.0,87,29.29,10.0,Calm,Calm,-,N/A,,Scattered Clouds,0,2012-10-14 15:53:00
8:53 AM,8.1,5.0,87,29.29,10.0,Calm,Calm,-,N/A,,Scattered Clouds,0,2012-10-14 16:53:00
9:53 AM,14.0,10.9,88,29.27,10.0,Calm,Calm,-,N/A,,Mostly Cloudy,0,2012-10-14 17:53:00
10:53 AM,19.0,15.1,85,29.24,10.0,Calm,Calm,-,N/A,,Scattered Clouds,0,2012-10-14 18:53:00
11:53 AM,24.1,16.0,71,29.23,10.0,Calm,Calm,-,N/A,,Mostly Cloudy,0,2012-10-14 19:53:00
12:53 PM,23.0,16.0,74,29.21,10.0,ESE,3.5,-,N/A,,Mostly Cloudy,110,2012-10-14 20:53:00
1:53 PM,28.9,17.1,61,29.18,10.0,North,4.6,-,N/A,,Scattered Clouds,10,2012-10-14 21:53:00
2:53 PM,28.0,17.1,63,29.18,10.0,East,3.5,-,N/A,,Scattered Clouds,90,2012-10-14 22:53:00
3:53 PM,28.9,17.1,61,29.15,10.0,Calm,Calm,-,N/A,,Scattered Clouds,0,2012-10-14 23:53:00
4:53 PM,28.9,18.0,64,29.14,10.0,Calm,Calm,-,N/A,,Scattered Clouds,0,2012-10-15 00:53:00
5:53 PM,26.1,17.1,69,29.13,10.0,Calm,Calm,-,N/A,,Scattered Clouds,0,2012-10-15 01:53:00
6:53 PM,21.9,16.0,78,29.13,10.0,Calm,Calm,-,N/A,,Scattered Clouds,0,2012-10-15 02:53:00
7:53 PM,18.0,12.9,81,29.15,10.0,Calm,Calm,-,N/A,,Scattered Clouds,0,2012-10-15 03:53:00
8:53 PM,21.0,16.0,81,29.13,10.0,Calm,Calm,-,N/A,,Mostly Cloudy,0,2012-10-15 04:53:00
9:30 PM,21.2,17.6,86,29.02,10.0,Calm,Calm,-,N/A,,Mostly Cloudy,0,2012-10-15 05:30:00
9:53 PM,21.9,18.0,85,29.13,10.0,Calm,Calm,-,N/A,,Overcast,0,2012-10-15 05:53:00
10:53 PM,21.9,18.0,85,29.11,10.0,Calm,Calm,-,N/A,,Overcast,0,2012-10-15 06:53:00
11:53 PM,24.1,19.0,81,29.11,10.0,Calm,Calm,-,N/A,,Overcast,0,2012-10-15 07:53:00